This demonstration page uses our WeatherBlox Daily Observations layout. Learn more.

Left ArrowRight Arrow

53.62937, 11.41316

Hourly Observations for May 14, 2021

Temp ( °F °C ) Dew Point ( °F °C ) Humidity (%) Winds ( mph kmh ) Pressure ( in mb ) Visibility ( mi km ) Precip ( " mm )
7:20 am 07:20 Mostly Cloudy 48 9 45 7 87 87 SW 7 11 29.65 1004 5 8 N/A
7:50 am 07:50 Mostly Cloudy 48 9 46 8 94 94 WSW 7 11 29.65 1004 5 8 N/A
8:20 am 08:20 Mostly Cloudy 48 9 46 8 94 94 WSW 6 9 29.65 1004 5 8 N/A
8:50 am 08:50 Mostly Cloudy 48 9 46 8 94 94 SW 7 11 29.65 1004 30 48 N/A
9:20 am 09:20 Mostly Cloudy 48 9 46 8 94 94 WSW 6 9 29.65 1004 5 8 N/A
9:50 am 09:50 Mostly Cloudy 50 10 46 8 88 88 WSW 8 13 29.65 1004 30 48 N/A
10:20 am 10:20 Mostly Cloudy 50 10 46 8 88 88 WSW 7 11 29.65 1004 6 9 N/A
10:50 am 10:50 Mostly Cloudy 50 10 46 8 88 88 SW 6 9 29.68 1005 30 48 N/A
11:20 am 11:20 Mostly Cloudy 50 10 46 8 88 88 SW 8 13 29.68 1005 30 48 N/A
11:50 am 11:50 Mostly Cloudy 50 10 46 8 88 88 SW 6 9 29.68 1005 30 48 N/A
12:20 pm 12:20 Mostly Cloudy 50 10 46 8 88 88 WSW 9 15 29.68 1005 30 48 N/A
12:50 pm 12:50 Mostly Cloudy 52 11 46 8 82 82 WSW 9 15 29.68 1005 30 48 N/A
1:20 pm 13:20 Mostly Cloudy 52 11 48 9 88 88 SW 13 20 29.68 1005 30 48 N/A
1:50 pm 13:50 Mostly Cloudy 50 10 48 9 94 94 SW 13 20 29.68 1005 30 48 N/A
2:20 pm 14:20 Mostly Cloudy 50 10 46 8 88 88 SW 10 17 29.68 1005 30 48 N/A
2:50 pm 14:50 Mostly Cloudy 50 10 46 8 88 88 SW 10 17 29.71 1006 30 48 N/A
3:20 pm 15:20 Mostly Cloudy 50 10 46 8 88 88 SW 8 13 29.71 1006 30 48 N/A
3:50 pm 15:50 Mostly Cloudy 50 10 46 8 88 88 SW 9 15 29.71 1006 30 48 N/A
4:20 pm 16:20 Mostly Cloudy 48 9 46 8 94 94 SW 12 19 29.71 1006 30 48 N/A
4:50 pm 16:50 Mostly Cloudy 48 9 46 8 94 94 SW 12 19 29.71 1006 30 48 N/A
5:20 pm 17:20 Mostly Cloudy with Drizzle 50 10 46 8 88 88 SW 7 11 29.71 1006 5 8 N/A
5:50 pm 17:50 Mostly Cloudy 48 9 45 7 87 87 SW 9 15 29.71 1006 30 48 N/A
6:20 pm 18:20 Mostly Cloudy 48 9 45 7 87 87 WSW 10 17 29.71 1006 30 48 N/A
6:50 pm 18:50 Mostly Cloudy with Light Rain 48 9 46 8 94 94 SW 7 11 29.71 1006 5 8 N/A
7:20 pm 19:20 Mostly Cloudy 48 9 46 8 94 94 WSW 6 9 29.71 1006 30 48 N/A
7:50 pm 19:50 Mostly Cloudy 48 9 46 8 94 94 SW 6 9 29.71 1006 30 48 N/A
8:20 pm 20:20 Mostly Cloudy 48 9 45 7 87 87 SW 7 11 29.71 1006 30 48 N/A
8:50 pm 20:50 Mostly Cloudy 48 9 45 7 87 87 SW 5 7 29.71 1006 30 48 N/A
9:20 pm 21:20 Mostly Cloudy 46 8 45 7 93 93 SW 7 11 29.71 1006 30 48 N/A
9:50 pm 21:50 Mostly Cloudy 46 8 45 7 93 93 SW 8 13 29.74 1007 30 48 N/A

Powered by AerisWeather